SWR0355 SPZO-MYNN

Flight info

Callsign SWR0355
Flight time 5h 33m
Altitude 41000
Route TILPA UV11 URC/N0468F400 UT335 FANES/N0464F410 UV9 IQT UL300 ROLUS/N0465F400 UN420 ORBAB/N0462F410 UM779 GIR/N0461F400 UL305 UGALU UM779 TAKOD UL347 MLY UT172 BEMOL UL417 NEFTU UR625 PIBLO/N0459F410
Aircraft A339/H-SADE1E2E3GHIJ3J5M1P2RWXY/LB2D1

Departure

Time 2026-04-30 14:05
Airport Alejandro Velasco Astete International Airport (SPZO)

Arrival

Time 2026-04-30 19:38
Airport Lynden Pindling International Airport (MYNN)
Time Latitude Longitude Altitude Speed Heading
2026-04-30 13:43 -13.53768 -71.94306 10834 ft 0 kts 273°
2026-04-30 13:54 -13.53768 -71.94301 10834 ft 2 kts 278°
2026-04-30 13:54 -13.53771 -71.94286 10833 ft 2 kts 284°
2026-04-30 13:54 -13.53774 -71.94270 10833 ft 2 kts 281°
2026-04-30 13:54 -13.53777 -71.94256 10832 ft 2 kts 280°
2026-04-30 13:55 -13.53779 -71.94241 10833 ft 2 kts 281°
2026-04-30 13:55 -13.53782 -71.94225 10833 ft 2 kts 281°
2026-04-30 13:55 -13.53783 -71.94221 10833 ft 0 kts 281°
2026-04-30 13:57 -13.53782 -71.94224 10833 ft 1 kts 281°
2026-04-30 13:57 -13.53779 -71.94236 10832 ft 1 kts 294°
2026-04-30 13:57 -13.53766 -71.94255 10832 ft 4 kts 316°
2026-04-30 13:58 -13.53740 -71.94276 10833 ft 4 kts 323°
2026-04-30 13:58 -13.53689 -71.94315 10834 ft 5 kts 315°
2026-04-30 13:58 -13.53672 -71.94349 10836 ft 5 kts 282°
2026-04-30 13:59 -13.53671 -71.94391 10838 ft 5 kts 275°
2026-04-30 13:59 -13.53663 -71.94432 10840 ft 6 kts 282°
2026-04-30 13:59 -13.53655 -71.94485 10841 ft 8 kts 277°
2026-04-30 13:59 -13.53654 -71.94547 10843 ft 8 kts 268°
2026-04-30 14:00 -13.53646 -71.94601 10846 ft 7 kts 280°
2026-04-30 14:00 -13.53628 -71.94717 10851 ft 8 kts 277°
2026-04-30 14:00 -13.53621 -71.94781 10853 ft 9 kts 276°
2026-04-30 14:01 -13.53614 -71.94849 10856 ft 9 kts 276°
2026-04-30 14:01 -13.53606 -71.94923 10859 ft 11 kts 276°
2026-04-30 14:01 -13.53598 -71.95003 10862 ft 11 kts 275°
2026-04-30 14:01 -13.53590 -71.95085 10865 ft 11 kts 276°
2026-04-30 14:02 -13.53581 -71.95168 10868 ft 11 kts 276°
2026-04-30 14:02 -13.53572 -71.95252 10871 ft 12 kts 276°
2026-04-30 14:02 -13.53562 -71.95341 10875 ft 12 kts 276°
2026-04-30 14:02 -13.53547 -71.95418 10877 ft 10 kts 301°
2026-04-30 14:03 -13.53486 -71.95442 10878 ft 10 kts 15°
2026-04-30 14:03 -13.53431 -71.95422 10877 ft 6 kts 43°
2026-04-30 14:03 -13.53420 -71.95382 10876 ft 1 kts 94°
2026-04-30 14:04 -13.53428 -71.95286 10873 ft 42 kts 96°
2026-04-30 14:04 -13.53482 -71.94764 10854 ft 103 kts 96°
2026-04-30 14:04 -13.53576 -71.93832 10814 ft 156 kts 96°
2026-04-30 14:04 -13.53704 -71.92574 10809 ft 195 kts 93°
2026-04-30 14:05 -13.53839 -71.91147 11242 ft 201 kts 94°
2026-04-30 14:05 -13.53990 -71.89749 11871 ft 200 kts 97°
2026-04-30 14:05 -13.54332 -71.88381 12485 ft 200 kts 110°
2026-04-30 14:05 -13.54896 -71.87083 13011 ft 198 kts 114°
2026-04-30 14:06 -13.55511 -71.85837 13465 ft 197 kts 116°
2026-04-30 14:06 -13.56599 -71.83284 14336 ft 194 kts 108°
2026-04-30 14:07 -13.57541 -71.80722 15151 ft 193 kts 107°
2026-04-30 14:07 -13.57993 -71.79396 15380 ft 203 kts 107°
2026-04-30 14:07 -13.58480 -71.77987 15604 ft 215 kts 108°
2026-04-30 14:08 -13.59721 -71.74976 16081 ft 242 kts 118°
2026-04-30 14:08 -13.60713 -71.73541 16313 ft 256 kts 129°
2026-04-30 14:08 -13.63682 -71.71145 16811 ft 288 kts 152°
2026-04-30 14:09 -13.65609 -71.70393 17079 ft 304 kts 165°
2026-04-30 14:09 -13.67779 -71.70072 17359 ft 321 kts 178°
2026-04-30 14:09 -13.72265 -71.71062 18172 ft 341 kts 207°
2026-04-30 14:10 -13.74238 -71.72388 18705 ft 344 kts 221°
2026-04-30 14:10 -13.75868 -71.74214 19293 ft 345 kts 236°
2026-04-30 14:10 -13.77000 -71.76372 19768 ft 345 kts 251°
2026-04-30 14:10 -13.77581 -71.78728 20238 ft 346 kts 264°
2026-04-30 14:11 -13.77578 -71.81195 20744 ft 346 kts 281°
2026-04-30 14:11 -13.76738 -71.83482 21246 ft 345 kts 304°
2026-04-30 14:11 -13.75085 -71.85274 21756 ft 345 kts 327°
2026-04-30 14:11 -13.72898 -71.86293 22040 ft 354 kts 348°
2026-04-30 14:12 -13.70409 -71.86665 22269 ft 366 kts 353°
2026-04-30 14:12 -13.67830 -71.87009 22483 ft 379 kts 353°
2026-04-30 14:12 -13.65161 -71.87373 22694 ft 392 kts 353°
2026-04-30 14:12 -13.63356 -71.87624 22872 ft 398 kts 352°
2026-04-30 14:13 -13.59668 -71.88144 23497 ft 403 kts 352°
2026-04-30 14:13 -13.56867 -71.88541 24052 ft 404 kts 352°
2026-04-30 14:13 -13.54083 -71.88937 24582 ft 406 kts 351°
2026-04-30 14:13 -13.51259 -71.89341 25131 ft 408 kts 351°
2026-04-30 14:14 -13.48447 -71.89743 25666 ft 409 kts 351°
2026-04-30 14:14 -13.45620 -71.90149 26179 ft 410 kts 351°
2026-04-30 14:14 -13.42771 -71.90557 26654 ft 413 kts 350°
2026-04-30 14:14 -13.39908 -71.90968 27122 ft 415 kts 350°
2026-04-30 14:15 -13.37070 -71.91374 27589 ft 416 kts 350°
2026-04-30 14:15 -13.34161 -71.91790 28068 ft 418 kts 350°
2026-04-30 14:15 -13.31277 -71.92203 28549 ft 419 kts 349°
2026-04-30 14:15 -13.28399 -71.92615 28998 ft 420 kts 349°
2026-04-30 14:16 -13.25473 -71.93037 29426 ft 422 kts 349°
2026-04-30 14:16 -13.22551 -71.93456 29831 ft 425 kts 349°
2026-04-30 14:16 -13.19596 -71.93879 30237 ft 427 kts 349°
2026-04-30 14:16 -13.16648 -71.94302 30631 ft 429 kts 349°
2026-04-30 14:17 -13.13699 -71.94723 31027 ft 431 kts 349°
2026-04-30 14:17 -13.10712 -71.95151 31386 ft 434 kts 349°
2026-04-30 14:17 -13.07722 -71.95578 31738 ft 436 kts 349°
2026-04-30 14:17 -13.04695 -71.96010 32108 ft 438 kts 349°
2026-04-30 14:18 -13.01646 -71.96446 32474 ft 439 kts 349°
2026-04-30 14:18 -12.98630 -71.96876 32807 ft 442 kts 349°
2026-04-30 14:18 -12.92514 -71.97749 33791 ft 440 kts 349°
2026-04-30 14:19 -12.86482 -71.98608 34968 ft 434 kts 350°
2026-04-30 14:19 -12.83503 -71.99031 35507 ft 431 kts 350°
2026-04-30 14:19 -12.80528 -71.99455 35990 ft 429 kts 350°
2026-04-30 14:20 -12.77563 -71.99964 36436 ft 427 kts 347°
2026-04-30 14:20 -12.74657 -72.00618 36854 ft 426 kts 344°
2026-04-30 14:20 -12.69003 -72.02355 37608 ft 423 kts 339°
2026-04-30 14:21 -12.66255 -72.03434 37979 ft 422 kts 336°
2026-04-30 14:21 -12.63553 -72.04631 38257 ft 423 kts 336°
2026-04-30 14:21 -12.58139 -72.07067 38684 ft 426 kts 335°
2026-04-30 14:22 -12.55424 -72.08291 38928 ft 427 kts 335°
2026-04-30 14:22 -12.49965 -72.10753 39422 ft 429 kts 335°
2026-04-30 14:22 -12.47238 -72.11982 39479 ft 432 kts 335°
2026-04-30 14:23 -12.36173 -72.16972 39497 ft 433 kts 335°
2026-04-30 14:24 -12.27929 -72.20683 39581 ft 432 kts 335°
2026-04-30 14:25 -12.16875 -72.25659 39527 ft 433 kts 335°
2026-04-30 14:26 -12.11346 -72.28146 39384 ft 434 kts 335°
2026-04-30 14:26 -12.08571 -72.29394 39332 ft 433 kts 335°
2026-04-30 14:27 -12.00288 -72.33116 39180 ft 434 kts 335°
2026-04-30 14:27 -11.94772 -72.35594 39136 ft 433 kts 335°
2026-04-30 14:28 -11.86450 -72.39329 39081 ft 434 kts 335°
2026-04-30 14:28 -11.80917 -72.41812 39060 ft 434 kts 335°
2026-04-30 14:29 -11.70760 -72.46365 39034 ft 434 kts 336°
2026-04-30 14:31 -11.55983 -72.52985 39018 ft 434 kts 336°
2026-04-30 14:31 -11.47638 -72.56719 39010 ft 435 kts 336°
2026-04-30 14:32 -11.39311 -72.60443 39018 ft 435 kts 336°
2026-04-30 14:33 -11.33783 -72.62915 39014 ft 435 kts 336°
2026-04-30 14:33 -11.25417 -72.66652 39010 ft 435 kts 336°
2026-04-30 14:34 -11.19882 -72.69122 39008 ft 436 kts 336°
2026-04-30 14:34 -11.14308 -72.71611 39004 ft 435 kts 336°
2026-04-30 14:35 -11.05978 -72.75327 39006 ft 436 kts 336°
2026-04-30 14:36 -11.00434 -72.77799 39000 ft 436 kts 336°
2026-04-30 14:36 -10.94850 -72.80288 39000 ft 436 kts 336°
2026-04-30 14:37 -10.89293 -72.82764 38999 ft 436 kts 336°
2026-04-30 14:37 -10.83696 -72.85257 38998 ft 436 kts 336°
2026-04-30 14:38 -10.78116 -72.87740 38996 ft 436 kts 336°
2026-04-30 14:38 -10.72573 -72.90207 38996 ft 436 kts 336°
2026-04-30 14:39 -10.66992 -72.92690 38996 ft 436 kts 336°
2026-04-30 14:39 -10.61447 -72.95154 38996 ft 436 kts 336°
2026-04-30 14:40 -10.53077 -72.98873 38998 ft 435 kts 336°
2026-04-30 14:40 -10.47538 -73.01335 39000 ft 436 kts 336°
2026-04-30 14:41 -10.41957 -73.03813 39002 ft 435 kts 336°
2026-04-30 14:41 -10.36419 -73.06270 39003 ft 435 kts 336°
2026-04-30 14:42 -10.30843 -73.08743 39005 ft 436 kts 336°
2026-04-30 14:42 -10.25298 -73.11202 39006 ft 436 kts 336°
2026-04-30 14:43 -10.19719 -73.13676 39004 ft 435 kts 336°
2026-04-30 14:43 -10.14180 -73.16131 39001 ft 436 kts 336°
2026-04-30 14:44 -10.08596 -73.18604 38997 ft 436 kts 336°
2026-04-30 14:44 -10.03045 -73.21062 38996 ft 436 kts 336°
2026-04-30 14:45 -9.97458 -73.23535 38989 ft 436 kts 336°
2026-04-30 14:45 -9.91905 -73.25991 38991 ft 436 kts 336°
2026-04-30 14:46 -9.86284 -73.28477 38990 ft 437 kts 336°
2026-04-30 14:46 -9.81639 -73.30532 38991 ft 437 kts 336°
2026-04-30 14:47 -9.75118 -73.33414 38992 ft 437 kts 336°
2026-04-30 14:47 -9.69554 -73.35873 38992 ft 437 kts 336°
2026-04-30 14:48 -9.63944 -73.38350 38983 ft 438 kts 336°
2026-04-30 14:48 -9.58366 -73.40812 38979 ft 438 kts 336°
2026-04-30 14:49 -9.52749 -73.43291 38975 ft 438 kts 336°
2026-04-30 14:49 -9.47169 -73.45752 38969 ft 438 kts 336°
2026-04-30 14:50 -9.38775 -73.49449 38962 ft 439 kts 336°
2026-04-30 14:51 -9.30327 -73.53171 38961 ft 440 kts 337°
2026-04-30 14:52 -9.21908 -73.56876 38959 ft 439 kts 336°
2026-04-30 14:52 -9.13487 -73.60583 38952 ft 440 kts 336°
2026-04-30 14:53 -9.05054 -73.64292 38952 ft 441 kts 337°
2026-04-30 14:54 -8.93763 -73.69257 38951 ft 442 kts 337°
2026-04-30 14:55 -8.85298 -73.72976 38948 ft 442 kts 337°
2026-04-30 14:56 -8.74016 -73.77931 38949 ft 441 kts 337°
2026-04-30 14:57 -8.65519 -73.81660 38953 ft 442 kts 337°
2026-04-30 14:58 -8.54211 -73.86622 38960 ft 442 kts 337°
2026-04-30 14:58 -8.45740 -73.90340 38962 ft 443 kts 337°
2026-04-30 15:00 -8.31562 -73.96553 38959 ft 443 kts 337°
2026-04-30 15:01 -8.20257 -74.01505 38959 ft 444 kts 337°
2026-04-30 15:01 -8.11713 -74.05243 38954 ft 444 kts 337°
2026-04-30 15:02 -8.06052 -74.07720 38953 ft 444 kts 337°
2026-04-30 15:03 -7.91832 -74.13938 38950 ft 444 kts 337°
2026-04-30 15:04 -7.77614 -74.20149 38948 ft 445 kts 337°
2026-04-30 15:06 -7.63370 -74.26368 38950 ft 445 kts 337°
2026-04-30 15:07 -7.51691 -74.30527 38949 ft 445 kts 350°
2026-04-30 15:07 -7.45541 -74.30968 38951 ft 445 kts
2026-04-30 15:08 -7.39379 -74.30147 38950 ft 446 kts 13°
2026-04-30 15:09 -7.24384 -74.26064 38950 ft 446 kts 14°
2026-04-30 15:10 -7.12374 -74.22760 38949 ft 447 kts 14°
2026-04-30 15:11 -6.94320 -74.17802 38948 ft 447 kts 14°
2026-04-30 15:13 -6.79248 -74.13664 38946 ft 447 kts 14°
2026-04-30 15:14 -6.58214 -74.07896 38948 ft 446 kts 14°
2026-04-30 15:17 -6.31186 -74.00491 38948 ft 446 kts 14°
2026-04-30 15:19 -6.07166 -73.93918 38944 ft 446 kts 14°
2026-04-30 17:39 11.39917 -75.84504 38827 ft 467 kts 340°
2026-04-30 17:42 11.71450 -75.93285 38833 ft 468 kts 340°
2026-04-30 17:43 11.87195 -75.97727 38838 ft 470 kts 339°
2026-04-30 17:44 12.06129 -76.03125 38841 ft 470 kts 340°
2026-04-30 17:47 12.34527 -76.11229 38851 ft 470 kts 339°
2026-04-30 17:48 12.56625 -76.17560 38858 ft 470 kts 339°
2026-04-30 17:50 12.81845 -76.24796 38877 ft 470 kts 339°
2026-04-30 17:52 13.00758 -76.30229 38881 ft 471 kts 339°
2026-04-30 17:54 13.29200 -76.38420 38879 ft 472 kts 339°
2026-04-30 17:56 13.54534 -76.45732 38881 ft 472 kts 339°
2026-04-30 17:58 13.73539 -76.51228 38882 ft 473 kts 339°
2026-04-30 18:00 13.98916 -76.58581 38878 ft 473 kts 339°
2026-04-30 18:01 14.14747 -76.63177 38885 ft 473 kts 339°
2026-04-30 18:02 14.33784 -76.68711 38888 ft 472 kts 339°
2026-04-30 18:04 14.52764 -76.74239 38893 ft 472 kts 338°
2026-04-30 18:06 14.78080 -76.81627 38902 ft 471 kts 338°
2026-04-30 18:08 15.00193 -76.88060 38901 ft 472 kts 340°
2026-04-30 18:10 15.25935 -76.94035 38906 ft 473 kts 341°
2026-04-30 18:11 15.48410 -76.99234 38913 ft 472 kts 341°
2026-04-30 18:13 15.64493 -77.02963 38917 ft 471 kts 341°
2026-04-30 18:14 15.80511 -77.06683 38917 ft 471 kts 341°
2026-04-30 18:15 15.99691 -77.11145 38916 ft 470 kts 341°
2026-04-30 18:16 16.12423 -77.14112 38916 ft 469 kts 341°
2026-04-30 18:17 16.18822 -77.15604 38931 ft 469 kts 341°
2026-04-30 18:18 16.28400 -77.17838 38927 ft 468 kts 341°
2026-04-30 18:18 16.34749 -77.19320 38925 ft 468 kts 341°
2026-04-30 18:19 16.41139 -77.20788 38923 ft 470 kts 343°
2026-04-30 18:19 16.47669 -77.21529 38927 ft 477 kts 353°
2026-04-30 18:20 16.54365 -77.21137 38931 ft 485 kts
2026-04-30 18:20 16.60997 -77.19585 38933 ft 491 kts 11°
2026-04-30 18:21 16.67529 -77.17522 38935 ft 490 kts 12°
2026-04-30 18:21 16.74061 -77.15440 38935 ft 490 kts 12°
2026-04-30 18:22 16.80618 -77.13367 38937 ft 490 kts 12°
2026-04-30 18:22 16.90378 -77.10295 38939 ft 489 kts 12°
2026-04-30 18:23 16.96927 -77.08234 38940 ft 489 kts 12°
2026-04-30 18:23 17.03436 -77.06184 38939 ft 488 kts 12°
2026-04-30 18:24 17.13185 -77.03113 38944 ft 488 kts 12°
2026-04-30 18:25 17.19714 -77.01053 38944 ft 488 kts 12°
2026-04-30 18:25 17.29454 -76.97975 38945 ft 487 kts 12°
2026-04-30 18:26 17.39196 -76.94896 38945 ft 486 kts 12°
2026-04-30 18:27 17.48918 -76.91818 38943 ft 485 kts 12°
2026-04-30 18:28 17.58600 -76.88747 38943 ft 485 kts 12°
2026-04-30 18:28 17.68303 -76.85667 38943 ft 484 kts 12°
2026-04-30 18:29 17.81197 -76.81563 38946 ft 483 kts 12°
2026-04-30 18:30 17.94240 -76.79140 38955 ft 472 kts 355°
2026-04-30 18:31 18.03938 -76.80178 38960 ft 463 kts 343°
2026-04-30 18:32 18.13400 -76.82297 38965 ft 462 kts 343°
2026-04-30 18:33 18.22834 -76.84411 38976 ft 462 kts 343°
2026-04-30 18:33 18.32289 -76.86520 38982 ft 463 kts 343°
2026-04-30 18:34 18.41746 -76.88629 38970 ft 462 kts 343°
2026-04-30 18:35 18.48043 -76.90037 38962 ft 462 kts 343°
2026-04-30 18:35 18.54380 -76.91453 38959 ft 462 kts 343°
2026-04-30 18:36 18.63794 -76.93553 38954 ft 462 kts 343°
2026-04-30 18:37 18.73269 -76.95670 38953 ft 462 kts 343°
2026-04-30 18:37 18.79535 -76.97072 38957 ft 462 kts 344°
2026-04-30 18:38 18.85833 -76.98489 38958 ft 462 kts 343°
2026-04-30 18:38 18.92108 -76.99902 38963 ft 462 kts 344°
2026-04-30 18:39 18.98417 -77.01321 38961 ft 462 kts 344°
2026-04-30 18:39 19.04731 -77.02740 38961 ft 462 kts 344°
2026-04-30 18:40 19.10993 -77.04147 38966 ft 461 kts 343°
2026-04-30 18:40 19.17287 -77.05565 38966 ft 461 kts 343°
2026-04-30 18:41 19.23561 -77.06978 38963 ft 461 kts 343°
2026-04-30 18:41 19.29856 -77.08397 38967 ft 461 kts 343°
2026-04-30 18:42 19.36085 -77.09931 38967 ft 459 kts 340°
2026-04-30 18:42 19.45356 -77.12622 38966 ft 458 kts 340°
2026-04-30 18:45 19.79103 -77.22449 38967 ft 456 kts 340°
2026-04-30 18:46 19.85257 -77.24245 38977 ft 456 kts 340°
2026-04-30 18:46 19.91362 -77.26032 38987 ft 455 kts 340°
2026-04-30 18:47 19.97459 -77.27815 38998 ft 455 kts 340°
2026-04-30 18:47 20.03584 -77.29609 39000 ft 455 kts 340°
2026-04-30 18:48 20.09709 -77.31404 38991 ft 455 kts 339°
2026-04-30 18:48 20.15801 -77.33189 38983 ft 455 kts 340°
2026-04-30 18:49 20.21923 -77.34984 38969 ft 455 kts 340°
2026-04-30 18:49 20.28020 -77.36772 38966 ft 455 kts 340°
2026-04-30 18:50 20.34145 -77.38572 38960 ft 455 kts 340°
2026-04-30 18:50 20.40247 -77.40363 38964 ft 456 kts 340°
2026-04-30 18:51 20.46377 -77.42165 38959 ft 455 kts 340°
2026-04-30 18:51 20.52592 -77.43630 38962 ft 460 kts 345°
2026-04-30 18:52 20.58974 -77.44392 38961 ft 464 kts 352°
2026-04-30 18:52 20.65446 -77.44439 38961 ft 467 kts 356°
2026-04-30 18:53 20.71982 -77.44238 38961 ft 468 kts 356°
2026-04-30 18:53 20.78468 -77.44030 38965 ft 467 kts 356°
2026-04-30 18:54 20.85001 -77.43827 38962 ft 468 kts 356°
2026-04-30 18:54 20.91491 -77.43627 38970 ft 467 kts 356°
2026-04-30 18:55 20.98021 -77.43429 38972 ft 467 kts 356°
2026-04-30 18:55 21.07778 -77.43130 38980 ft 468 kts 356°
2026-04-30 18:56 21.17527 -77.42830 38979 ft 468 kts 356°
2026-04-30 18:57 21.27310 -77.42527 38980 ft 467 kts 356°
2026-04-30 18:57 21.33814 -77.42324 38981 ft 466 kts 356°
2026-04-30 18:58 21.43542 -77.42042 38976 ft 467 kts 356°
2026-04-30 18:59 21.53289 -77.41788 38978 ft 465 kts 356°
2026-04-30 19:00 21.66250 -77.41441 38975 ft 465 kts 356°
2026-04-30 19:01 21.79206 -77.41091 38974 ft 466 kts 356°
2026-04-30 19:02 21.88900 -77.40826 38977 ft 465 kts 356°
2026-04-30 19:03 22.01827 -77.40473 38980 ft 464 kts 356°
2026-04-30 19:04 22.14749 -77.40118 38975 ft 463 kts 356°
2026-04-30 19:05 22.27627 -77.39799 38994 ft 459 kts 354°
2026-04-30 19:06 22.40267 -77.40822 38997 ft 455 kts 350°
2026-04-30 19:06 22.49723 -77.41779 38989 ft 453 kts 351°
2026-04-30 19:07 22.59155 -77.42722 38987 ft 452 kts 351°
2026-04-30 19:08 22.71707 -77.43982 38989 ft 452 kts 351°
2026-04-30 19:09 22.81060 -77.44919 38945 ft 451 kts 351°
2026-04-30 19:09 22.84202 -77.45235 38671 ft 450 kts 352°
2026-04-30 19:09 22.87310 -77.45549 38279 ft 450 kts 352°
2026-04-30 19:10 22.93584 -77.46184 37215 ft 450 kts 352°
2026-04-30 19:10 22.99828 -77.46812 36137 ft 449 kts 353°
2026-04-30 19:11 23.02915 -77.47124 35603 ft 449 kts 353°
2026-04-30 19:11 23.09135 -77.47752 34397 ft 448 kts 354°
2026-04-30 19:11 23.12251 -77.48065 33831 ft 447 kts 354°
2026-04-30 19:12 23.15362 -77.48380 33246 ft 448 kts 355°
2026-04-30 19:12 23.18453 -77.48691 32722 ft 449 kts 355°
2026-04-30 19:12 23.21569 -77.49006 32148 ft 450 kts 355°
2026-04-30 19:13 23.27826 -77.49637 30908 ft 450 kts 356°
2026-04-30 19:13 23.34049 -77.50267 29679 ft 446 kts 357°
2026-04-30 19:13 23.37098 -77.50576 29229 ft 440 kts 357°
2026-04-30 19:14 23.40129 -77.50880 28755 ft 436 kts 357°
2026-04-30 19:14 23.43137 -77.51180 28285 ft 431 kts 356°
2026-04-30 19:14 23.46135 -77.51481 27821 ft 427 kts 356°
2026-04-30 19:14 23.49070 -77.51775 27373 ft 423 kts 356°
2026-04-30 19:15 23.51977 -77.52068 26922 ft 419 kts 356°
2026-04-30 19:15 23.57735 -77.52649 26034 ft 411 kts 356°
2026-04-30 19:15 23.60584 -77.52938 25617 ft 407 kts 356°
2026-04-30 19:16 23.63393 -77.53223 25165 ft 404 kts 356°
2026-04-30 19:16 23.66207 -77.53509 24716 ft 401 kts 355°
2026-04-30 19:16 23.71710 -77.54067 23841 ft 395 kts 355°
2026-04-30 19:17 23.74457 -77.54346 23413 ft 393 kts 355°
2026-04-30 19:17 23.79843 -77.54894 22574 ft 387 kts 355°
2026-04-30 19:17 23.82525 -77.55168 22170 ft 384 kts 355°
2026-04-30 19:18 23.86936 -77.55617 21459 ft 381 kts 355°
2026-04-30 19:18 23.90445 -77.55975 20904 ft 378 kts 354°
2026-04-30 19:18 23.93078 -77.56245 20478 ft 376 kts 355°
2026-04-30 19:19 23.95664 -77.56509 20076 ft 374 kts 354°
2026-04-30 19:19 23.98238 -77.56770 19688 ft 371 kts 354°
2026-04-30 19:19 24.03368 -77.57294 18861 ft 367 kts 354°
2026-04-30 19:20 24.05930 -77.57555 18440 ft 365 kts 354°
2026-04-30 19:20 24.08436 -77.57811 18033 ft 363 kts 354°
2026-04-30 19:20 24.13465 -77.58324 17222 ft 359 kts 354°
2026-04-30 19:21 24.15934 -77.58577 16821 ft 357 kts 354°
2026-04-30 19:21 24.20888 -77.59084 15947 ft 356 kts 354°
2026-04-30 19:22 24.25795 -77.59586 15103 ft 353 kts 354°
2026-04-30 19:22 24.33130 -77.60339 13812 ft 350 kts 353°
2026-04-30 19:23 24.40364 -77.61084 12547 ft 346 kts 354°
2026-04-30 19:24 24.45122 -77.61575 11717 ft 343 kts 354°
2026-04-30 19:24 24.47513 -77.61821 11305 ft 341 kts 354°
2026-04-30 19:24 24.52229 -77.62306 10516 ft 337 kts 354°
2026-04-30 19:25 24.58903 -77.62991 10156 ft 304 kts 354°
2026-04-30 19:26 24.62979 -77.63409 10052 ft 282 kts 354°
2026-04-30 19:26 24.66856 -77.63808 9542 ft 278 kts 354°
2026-04-30 19:26 24.68775 -77.64007 9250 ft 278 kts 354°
2026-04-30 19:27 24.72612 -77.64404 8675 ft 276 kts 354°
2026-04-30 19:27 24.76461 -77.64801 8096 ft 275 kts 354°
2026-04-30 19:28 24.78359 -77.64998 7816 ft 274 kts 354°
2026-04-30 19:28 24.82167 -77.65391 7245 ft 273 kts 354°
2026-04-30 19:29 24.85943 -77.65782 6686 ft 272 kts 354°
2026-04-30 19:29 24.87839 -77.65978 6407 ft 272 kts 354°
2026-04-30 19:30 24.93504 -77.66556 5585 ft 271 kts 354°
2026-04-30 19:30 24.97261 -77.66942 5051 ft 270 kts 354°
2026-04-30 19:31 25.00996 -77.67320 4495 ft 271 kts 354°
2026-04-30 19:31 25.02874 -77.67516 4148 ft 269 kts 354°
2026-04-30 19:31 25.06471 -77.67902 3738 ft 251 kts 354°
2026-04-30 19:32 25.08201 -77.68095 3467 ft 250 kts 353°
2026-04-30 19:32 25.09945 -77.68281 3143 ft 248 kts 358°
2026-04-30 19:32 25.11642 -77.68046 2984 ft 245 kts 19°
2026-04-30 19:32 25.13181 -77.67285 2842 ft 242 kts 26°
2026-04-30 19:33 25.14689 -77.66497 2707 ft 235 kts 26°
2026-04-30 19:33 25.16086 -77.65696 2626 ft 217 kts 38°
2026-04-30 19:33 25.17001 -77.64446 2589 ft 203 kts 71°
2026-04-30 19:33 25.17160 -77.62967 2493 ft 194 kts 101°
2026-04-30 19:34 25.16808 -77.61546 2378 ft 188 kts 114°
2026-04-30 19:34 25.16224 -77.60297 2278 ft 183 kts 125°
2026-04-30 19:34 25.14632 -77.58148 2215 ft 181 kts 134°
2026-04-30 19:35 25.13758 -77.57118 2201 ft 180 kts 134°
2026-04-30 19:35 25.12911 -77.56155 2117 ft 173 kts 134°
2026-04-30 19:35 25.12077 -77.55193 1904 ft 170 kts 135°
2026-04-30 19:35 25.11257 -77.54293 1656 ft 166 kts 137°
2026-04-30 19:36 25.10447 -77.53411 1445 ft 160 kts 135°
2026-04-30 19:36 25.09688 -77.52554 1260 ft 152 kts 136°
2026-04-30 19:36 25.08224 -77.50953 849 ft 143 kts 135°
2026-04-30 19:37 25.07545 -77.50199 669 ft 137 kts 135°
2026-04-30 19:37 25.06885 -77.49446 500 ft 136 kts 135°
2026-04-30 19:37 25.06212 -77.48702 347 ft 136 kts 136°
2026-04-30 19:37 25.05547 -77.47965 166 ft 135 kts 135°
2026-04-30 19:38 25.04887 -77.47234 39 ft 133 kts 135°
2026-04-30 19:38 25.04280 -77.46561 33 ft 108 kts 134°
2026-04-30 19:38 25.03833 -77.46066 33 ft 63 kts 135°
2026-04-30 19:38 25.03569 -77.45772 33 ft 47 kts 135°
2026-04-30 19:39 25.03449 -77.45631 33 ft 9 kts 105°
2026-04-30 19:39 25.03484 -77.45563 32 ft 11 kts 44°
2026-04-30 19:39 25.03548 -77.45509 33 ft 8 kts
2026-04-30 19:39 25.03595 -77.45543 32 ft 9 kts 315°
2026-04-30 19:40 25.03649 -77.45603 33 ft 11 kts 314°
2026-04-30 19:40 25.03712 -77.45673 33 ft 13 kts 314°
2026-04-30 19:40 25.03781 -77.45750 33 ft 14 kts 314°
2026-04-30 19:40 25.03856 -77.45834 33 ft 15 kts 315°
2026-04-30 19:41 25.03937 -77.45924 32 ft 16 kts 314°
2026-04-30 19:41 25.04021 -77.46018 32 ft 17 kts 314°
2026-04-30 19:41 25.04110 -77.46117 32 ft 18 kts 315°
2026-04-30 19:41 25.04202 -77.46217 33 ft 18 kts 314°
2026-04-30 19:42 25.04295 -77.46321 32 ft 19 kts 314°
2026-04-30 19:42 25.04390 -77.46426 32 ft 17 kts 314°
2026-04-30 19:42 25.04471 -77.46516 33 ft 16 kts 314°
2026-04-30 19:42 25.04550 -77.46604 33 ft 15 kts 315°
2026-04-30 19:43 25.04625 -77.46687 33 ft 15 kts 315°
2026-04-30 19:43 25.04694 -77.46751 32 ft 7 kts 343°
2026-04-30 19:43 25.04733 -77.46724 32 ft 7 kts 47°
2026-04-30 19:44 25.04803 -77.46726 33 ft 1 kts 318°
2026-04-30 19:44 25.04805 -77.46729 33 ft 0 kts 316°